Location: Newark
(44.6768°N, 22.5302°E)
Time: 01:35:10
(UTC+00:00)

ZACube-1 - Pass Details

Date: 03 July 2022
Orbit: 581 x 661 km, 97.6° (Epoch: 17 August)

Event Time Altitude Azimuth Distance (km) Brightness Sun altitude
Rises 01:10:38 0° 31° (NNE) 2,964 ? -13.5°
Reaches altitude 10° 01:13:47 10° 55° (NE) 2,061 ? -13.2°
Maximum altitude 01:16:19 15° 90° (E) 1,765 ? -12.9°
Drops below altitude 10° 01:18:52 10° 124° (SE) 2,069 ? -12.6°
Sets 01:22:02 0° 148° (SSE) 2,981 ? -12.3°
